This is the latest recevied weather packets stored in our database for station/object HS2LXA-WX. If no packets are shown the sender has not sent any weather packets the latest 10 day(s).
| Time | Temp. | Humidity | Pressure | Rain* | Wind** | Luminosity | Snow |
|---|---|---|---|---|---|---|---|
| 1778140331 | 31.11° C | 75% | 1013.1 hPa | 0 mm | - | - | - |
| 1778139729 | 31.11° C | 79% | 1013.2 hPa | 0 mm | - | - | - |
| 1778139130 | 31.11° C | 80% | 1013.2 hPa | 0 mm | - | - | - |
| 1778138526 | 31.11° C | 81% | 1013.2 hPa | 0 mm | - | - | - |
| 1778137926 | 30.56° C | 83% | 1013.2 hPa | 0 mm | - | - | - |
| 1778137326 | 30.56° C | 84% | 1013.1 hPa | 0 mm | - | - | - |
| 1778136711 | 30.56° C | 82% | 1013.2 hPa | 0 mm | - | - | - |
| 1778136111 | 30.56° C | 82% | 1013.1 hPa | 0 mm | - | - | - |
| 1778135511 | 30° C | 85% | 1013.1 hPa | 0 mm | - | - | - |
| 1778134909 | 30° C | 86% | 1013.1 hPa | 0 mm | - | - | - |
| 1778133874 | 28.89° C | 93% | 1013.1 hPa | 0 mm | - | - | - |
| 1778132607 | 28.33° C | 96% | 1013.1 hPa | 0 mm | - | - | - |
| 1778132009 | 28.33° C | 97% | 1013.2 hPa | 0 mm | - | - | - |
| 1778131407 | 28.33° C | 98% | 1013.2 hPa | 0 mm | - | - | - |
| 1778130233 | 27.78° C | 99% | 1013.2 hPa | 0 mm | - | - | - |
| 1778129590 | 28.33° C | 98% | 1013.2 hPa | 0 mm | - | - | - |
| 1778128991 | 28.89° C | 95% | 1013.2 hPa | 0 mm | - | - | - |
| 1778127971 | 29.44° C | 89% | 1013.2 hPa | 0 mm | - | - | - |
| 1778127121 | 31.67° C | 77% | 1013.1 hPa | 0 mm | - | - | - |
| 1778126520 | 31.11° C | 77% | 1013.2 hPa | 0 mm | - | - | - |
| 1778125920 | 31.67° C | 75% | 1013.2 hPa | 6.6 mm | - | - | - |
| 1778125320 | 31.67° C | 76% | 1013.1 hPa | 6.6 mm | - | - | - |
| 1778124720 | 31.67° C | 77% | 1013.1 hPa | 6.6 mm | - | - | - |
| 1778123825 | 31.67° C | 77% | 1013.1 hPa | 3.81 mm | - | - | - |
| 1778123225 | 32.22° C | 75% | 1013.2 hPa | 1.02 mm | - | - | - |
* Rain latest hour (hover to see other rain measurements)
** Current wind speed in m/s (hover to see current wind gust speed)